Flight Briefing for CPX762

Departure Arrival
Jorge Chávez International Airport (SPJC)
Click to view FAA NOTAMS
Miami International Airport (KMIA)
Click to view FAA NOTAMS
Departure Time Arrival Time
0930 UTC 1530 UTC
Aircraft Distance
B767-300BDSF 2376nm
Departure METAR Arrival METAR
SPJC 250400Z 15012KT 9999 BKN010 OVC018 18/16 Q1015 NOSIG RMK PP000 KMIA 250353Z 06008KT 10SM FEW035 26/18 A3010 RMK AO2 SLP192 T02560178
Suggested Route
XOPLI UG448 IKBIX Y183 PEAKY DVALL CURSO5


View recent IFR Routes data
Notes



Charts and Procedures

Charts for SPJC
No chart available
Charts for KMIA
No chart available

Windy.com Weather Map